Home > Weather > Perth > Past weeks

Flag for United Kingdom Past Weather in Perth, Scotland, United Kingdom — Yesterday and Last 2 Weeks

Now
48 °F

Cool.


Feels Like: 46 °F
Forecast: 44 / 58 °F
Wind: 6 mph from West

Location: Strathallan

Current Time: Jun 30, 2016 at 12:46:20 AM

Latest Report: Jun 30, 2016 at 12:00 AM


Visibility: 31 mi

Pressure: 29.55 "Hg

Humidity: 87%

Dew Point: 44 °F

Location of PerthLocation

Past Weather in Perth — Graph

°F

Perth Temperature Yesterday

Maximum temperature yesterday: 60 °F (at 3:00 PM)
Minimum temperature yesterday: 50 °F (at 6:00 AM)
Average temperature yesterday: 55 °F

High & Low Weather Summary for the Past Weeks

 TemperatureHumidityPressure
High68 °F (Jun 23, 1:00 PM)100% (Jun 26, 6:00 AM)30.17 "Hg (Jun 26, 6:00 AM)
Low39 °F (Jun 18, 5:00 AM)50% (Jun 20, 5:00 PM)29.41 "Hg (Jun 14, 11:00 PM)
Average56 °F82%29.85 "Hg
* Reported Jun 14 11:00 PM — Jun 29 11:00 PM, Perth, Weather by CustomWeather, © 2016

Note: Actual official high and low records may vary slightly from our data, if they occured in-between our weather recording intervals... More about our weather records

Advertising

Perth Weather History for the Previous 24 Hours

Scroll right to see more
 ConditionsComfort  
Time TempWeatherWind HumidityBarometerVisibility
11:00 PM
Wed, Jun 29
51 °FCool.6 mph82%29.55 "Hg31 mi
10:00 PM53 °FCool.6 mph82%29.54 "Hg31 mi
9:00 PM55 °FCool.5 mph77%29.50 "Hg31 mi
8:00 PM56 °FCool.7 mph77%29.50 "Hg28 mi
7:00 PM54 °FLots of rain. Cloudy.9 mph86%29.50 "Hg11 mi
6:00 PM59 °FCool.6 mph69%29.47 "Hg31 mi
5:00 PM57 °FCool.7 mph79%29.47 "Hg19 mi
4:00 PM53 °FLight rain. Cloudy.5 mph88%29.50 "Hg4 mi
3:00 PM60 °FCool.5 mph69%29.50 "Hg19 mi
2:00 PM59 °FCool.2 mph64%29.50 "Hg28 mi
1:00 PM59 °FCool.3 mph68%29.50 "Hg22 mi
12:00 PM58 °FCool.3 mph75%29.53 "Hg25 mi
11:00 AM57 °FCool.5 mph74%29.55 "Hg16 mi
10:00 AM57 °FCool.7 mph72%29.56 "Hg19 mi
9:00 AM55 °FCool.8 mph76%29.58 "Hg19 mi
8:00 AM52 °FCool.3 mph89%29.59 "Hg19 mi
7:00 AM53 °FCool.5 mph88%29.60 "Hg19 mi
6:00 AM50 °FCool.7 mph94%29.61 "Hg25 mi
5:00 AM51 °FRain. Cloudy.3 mph98%29.61 "Hg6 mi
4:00 AM51 °FCool.1 mph100%29.62 "Hg3 mi
Weather by CustomWeather, © 2016

See weather overviewHow to use our weather pages